DAL2253 KLAX-KLAS

Flight info

Callsign DAL2253
Flight time N/A
Altitude 27000
Route ORCKA5 MISEN RNDRZ4
Aircraft A321/M-SDE3FGHIRWY/LB1

Departure

Time 2026-04-26 01:46
Airport Los Angeles International Airport (KLAX)

Arrival

Time N/A
Airport Harry Reid International Airport (KLAS)
Time Latitude Longitude Altitude Speed Heading
2026-04-26 01:12 33.94540 -118.40781 123 ft 0 kts 96°
2026-04-26 01:28 33.94542 -118.40796 121 ft 4 kts 94°
2026-04-26 01:29 33.94543 -118.40828 123 ft 4 kts 88°
2026-04-26 01:29 33.94540 -118.40860 122 ft 4 kts 72°
2026-04-26 01:29 33.94528 -118.40884 123 ft 4 kts 18°
2026-04-26 01:29 33.94521 -118.40886 121 ft 0 kts 353°
2026-04-26 01:32 33.94523 -118.40887 124 ft 2 kts 353°
2026-04-26 01:32 33.94571 -118.40894 122 ft 11 kts 353°
2026-04-26 01:32 33.94656 -118.40906 124 ft 12 kts 353°
2026-04-26 01:33 33.94728 -118.40927 122 ft 11 kts 324°
2026-04-26 01:33 33.94739 -118.41034 126 ft 17 kts 264°
2026-04-26 01:33 33.94714 -118.41193 122 ft 19 kts 252°
2026-04-26 01:33 33.94689 -118.41334 124 ft 12 kts 261°
2026-04-26 01:34 33.94629 -118.41374 123 ft 12 kts 176°
2026-04-26 01:34 33.94524 -118.41360 124 ft 18 kts 173°
2026-04-26 01:34 33.94379 -118.41340 125 ft 24 kts 173°
2026-04-26 01:34 33.94192 -118.41311 124 ft 30 kts 173°
2026-04-26 01:35 33.93973 -118.41279 126 ft 32 kts 173°
2026-04-26 01:35 33.93804 -118.41254 123 ft 17 kts 175°
2026-04-26 01:35 33.93760 -118.41154 126 ft 15 kts 85°
2026-04-26 01:35 33.93776 -118.40997 126 ft 23 kts 83°
2026-04-26 01:36 33.93797 -118.40788 124 ft 25 kts 83°
2026-04-26 01:36 33.93817 -118.40592 126 ft 22 kts 83°
2026-04-26 01:36 33.93836 -118.40415 126 ft 20 kts 82°
2026-04-26 01:37 33.93862 -118.40154 126 ft 19 kts 83°
2026-04-26 01:37 33.93877 -118.40004 126 ft 17 kts 83°
2026-04-26 01:37 33.93890 -118.39877 126 ft 13 kts 83°
2026-04-26 01:37 33.93899 -118.39800 121 ft 7 kts 83°
2026-04-26 01:38 33.93904 -118.39751 126 ft 5 kts 83°
2026-04-26 01:38 33.93908 -118.39712 126 ft 6 kts 83°
2026-04-26 01:38 33.93913 -118.39653 124 ft 7 kts 83°
2026-04-26 01:38 33.93918 -118.39604 126 ft 5 kts 83°
2026-04-26 01:39 33.93922 -118.39566 126 ft 5 kts 83°
2026-04-26 01:39 33.93928 -118.39506 124 ft 10 kts 83°
2026-04-26 01:39 33.93936 -118.39428 126 ft 8 kts 83°
2026-04-26 01:39 33.93943 -118.39364 124 ft 7 kts 83°
2026-04-26 01:40 33.93952 -118.39283 126 ft 12 kts 83°
2026-04-26 01:40 33.93965 -118.39157 122 ft 18 kts 83°
2026-04-26 01:40 33.93983 -118.38975 126 ft 25 kts 83°
2026-04-26 01:40 33.94006 -118.38745 126 ft 28 kts 83°
2026-04-26 01:41 33.94030 -118.38516 126 ft 26 kts 82°
2026-04-26 01:41 33.94046 -118.38354 126 ft 15 kts 83°
2026-04-26 01:41 33.94059 -118.38235 124 ft 13 kts 82°
2026-04-26 01:41 33.94065 -118.38176 126 ft 1 kts 83°
2026-04-26 01:42 33.94066 -118.38167 126 ft 2 kts 83°
2026-04-26 01:42 33.94069 -118.38138 126 ft 3 kts 83°
2026-04-26 01:42 33.94069 -118.38130 124 ft 0 kts 83°
2026-04-26 01:42 33.94071 -118.38109 126 ft 6 kts 83°
2026-04-26 01:43 33.94077 -118.38061 126 ft 5 kts 82°
2026-04-26 01:43 33.94075 -118.38032 126 ft 0 kts 108°
2026-04-26 01:44 33.94052 -118.38011 126 ft 9 kts 154°
2026-04-26 01:45 33.93989 -118.38025 123 ft 10 kts 238°
2026-04-26 01:45 33.93974 -118.38132 126 ft 26 kts 263°
2026-04-26 01:45 33.93923 -118.38629 124 ft 91 kts 263°
2026-04-26 01:45 33.93823 -118.39596 122 ft 139 kts 263°
2026-04-26 01:46 33.93698 -118.40895 237 ft 165 kts 263°
2026-04-26 01:46 33.93572 -118.42243 883 ft 161 kts 265°
2026-04-26 01:46 33.93486 -118.43587 1468 ft 162 kts 265°
2026-04-26 01:46 33.93355 -118.44950 1950 ft 170 kts 261°
2026-04-26 01:47 33.93007 -118.46396 2132 ft 192 kts 246°
2026-04-26 01:47 33.92458 -118.47960 2314 ft 215 kts 248°
2026-04-26 01:47 33.91859 -118.49693 2710 ft 231 kts 248°
2026-04-26 01:47 33.91212 -118.51549 3263 ft 246 kts 248°
2026-04-26 01:48 33.90542 -118.53465 4083 ft 250 kts 248°
2026-04-26 01:48 33.89859 -118.55410 4765 ft 255 kts 248°
2026-04-26 01:48 33.89167 -118.57379 4951 ft 255 kts 248°
2026-04-26 01:48 33.88478 -118.59345 4998 ft 255 kts 248°
2026-04-26 01:49 33.87794 -118.61308 5008 ft 255 kts 248°
2026-04-26 01:49 33.87112 -118.63273 5011 ft 255 kts 248°
2026-04-26 01:49 33.86428 -118.65238 5008 ft 254 kts 248°
2026-04-26 01:49 33.85744 -118.67199 5008 ft 253 kts 249°
2026-04-26 01:50 33.85052 -118.69140 5005 ft 253 kts 245°
2026-04-26 01:50 33.83914 -118.70788 5516 ft 262 kts 219°
2026-04-26 01:50 33.82250 -118.71718 6330 ft 271 kts 193°
2026-04-26 01:50 33.80352 -118.71605 7038 ft 282 kts 164°
2026-04-26 01:51 33.78688 -118.70329 7779 ft 292 kts 133°
2026-04-26 01:51 33.77760 -118.68149 8492 ft 301 kts 101°
2026-04-26 01:51 33.77885 -118.65641 9181 ft 306 kts 69°
2026-04-26 01:51 33.78994 -118.63467 9866 ft 308 kts 49°
2026-04-26 01:52 33.80384 -118.61459 10318 ft 321 kts 47°
2026-04-26 01:52 33.81902 -118.59365 10458 ft 343 kts 47°
2026-04-26 01:52 33.83527 -118.57146 10646 ft 363 kts 47°
2026-04-26 01:52 33.85211 -118.54830 11148 ft 371 kts 47°
2026-04-26 01:53 33.86887 -118.52496 11717 ft 376 kts 48°
2026-04-26 01:53 33.88604 -118.50083 12301 ft 382 kts 48°
2026-04-26 01:53 33.90364 -118.47590 12885 ft 388 kts 48°
2026-04-26 01:53 33.92094 -118.45128 13457 ft 394 kts 48°
2026-04-26 01:54 33.93762 -118.42482 13991 ft 400 kts 55°
2026-04-26 01:54 33.95326 -118.39691 14526 ft 404 kts 55°
2026-04-26 01:54 33.96914 -118.36877 14893 ft 408 kts 55°
2026-04-26 01:54 33.98533 -118.34020 14997 ft 407 kts 55°
2026-04-26 01:55 34.00113 -118.31236 15016 ft 407 kts 55°
2026-04-26 01:55 34.01712 -118.28416 15010 ft 407 kts 55°
2026-04-26 01:55 34.03310 -118.25601 15031 ft 407 kts 55°
2026-04-26 01:55 34.04933 -118.22749 15014 ft 407 kts 55°
2026-04-26 01:56 34.06514 -118.19972 15012 ft 407 kts 55°
2026-04-26 01:56 34.08136 -118.17116 14995 ft 407 kts 55°
2026-04-26 01:56 34.09730 -118.14297 14998 ft 407 kts 55°
2026-04-26 01:56 34.11323 -118.11473 14991 ft 407 kts 55°
2026-04-26 01:57 34.12909 -118.08656 14996 ft 407 kts 55°
2026-04-26 01:57 34.14502 -118.05824 14984 ft 406 kts 55°